When you browse on this site, cookies collect data to enhance your experience and personalize the content and advertising you see.
Visit our Privacy Policy to learn more. By continuing to use the site, you agree to this use of cookies and data.
  • Em Portugal
  • Lista de países
  • Para 7 dias
  • Temperatura da água
  • Mapa do tempo
  • Widgets de tempo
  • user-avatar
    Iniciar Sessão

    Previsão horária em Ganja

    Hoje, 30 Maio, Sábado

    Tempo Temperatura Precipitação Vento Pressão Humidade
    00:00 +23°C° 0.1 mm 2 m/s 721 mmHg 72%
    01:00 +22°C° 0 mm 3 m/s 721 mmHg 70%
    02:00 +21°C° 0 mm 4 m/s 721 mmHg 68%
    03:00 +21°C° 0 mm 5 m/s 720 mmHg 69%
    04:00 +21°C° 0 mm 5 m/s 721 mmHg 67%
    05:00 +21°C° 0 mm 5 m/s 721 mmHg 64%
    06:00 +22°C° 0 mm 6 m/s 721 mmHg 62%
    07:00 +23°C° 0 mm 6 m/s 721 mmHg 59%
    08:00 +26°C° 0 mm 6 m/s 721 mmHg 56%
    09:00 +27°C° 0 mm 6 m/s 722 mmHg 54%
    10:00 +28°C° 0.1 mm 5 m/s 722 mmHg 52%
    11:00 +29°C° 0.1 mm 5 m/s 722 mmHg 50%
    12:00 +30°C° 0.1 mm 5 m/s 722 mmHg 48%
    13:00 +30°C° 0.1 mm 4 m/s 722 mmHg 46%
    14:00 +31°C° 0.1 mm 3 m/s 721 mmHg 44%
    15:00 +31°C° 0 mm 3 m/s 721 mmHg 42%
    16:00 +31°C° 0.1 mm 3 m/s 722 mmHg 44%
    17:00 +30°C° 0.1 mm 2 m/s 722 mmHg 47%
    18:00 +30°C° 0.1 mm 2 m/s 722 mmHg 49%
    19:00 +28°C° 0 mm 2 m/s 722 mmHg 52%
    20:00 +27°C° 0 mm 3 m/s 723 mmHg 55%
    21:00 +25°C° 0 mm 3 m/s 723 mmHg 58%
    22:00 +24°C° 0 mm 3 m/s 723 mmHg 59%
    23:00 +22°C° 0 mm 3 m/s 723 mmHg 60%

    Amanhã, 31 Maio, Domingo

    Tempo Temperatura Precipitação Vento Pressão Humidade
    00:00 +21°C° 0 mm 3 m/s 724 mmHg 61%
    01:00 +21°C° 0 mm 3 m/s 724 mmHg 64%
    02:00 +20°C° 0 mm 2 m/s 724 mmHg 67%
    03:00 +19°C° 0 mm 2 m/s 724 mmHg 70%
    04:00 +19°C° 0 mm 2 m/s 725 mmHg 70%
    05:00 +19°C° 0 mm 2 m/s 725 mmHg 71%
    06:00 +19°C° 0 mm 2 m/s 725 mmHg 71%
    07:00 +20°C° 0 mm 3 m/s 725 mmHg 68%
    08:00 +22°C° 0 mm 3 m/s 725 mmHg 64%
    09:00 +23°C° 0 mm 4 m/s 725 mmHg 61%
    10:00 +25°C° 0 mm 3 m/s 725 mmHg 58%
    11:00 +26°C° 0 mm 3 m/s 725 mmHg 55%
    12:00 +27°C° 0 mm 3 m/s 724 mmHg 52%
    13:00 +28°C° 0 mm 3 m/s 724 mmHg 51%
    14:00 +28°C° 0 mm 2 m/s 724 mmHg 49%
    15:00 +29°C° 0 mm 2 m/s 724 mmHg 48%
    16:00 +29°C° 0 mm 2 m/s 724 mmHg 49%
    17:00 +28°C° 0 mm 1 m/s 724 mmHg 50%
    18:00 +28°C° 0 mm 1 m/s 724 mmHg 51%
    19:00 +27°C° 0 mm 1 m/s 724 mmHg 55%
    20:00 +25°C° 0 mm 2 m/s 724 mmHg 58%
    21:00 +24°C° 0 mm 2 m/s 724 mmHg 62%
    22:00 +23°C° 0 mm 2 m/s 724 mmHg 63%
    23:00 +21°C° 0 mm 3 m/s 724 mmHg 65%

    Depois de amanhã, 1 Junho, Segunda-feira

    Tempo Temperatura Precipitação Vento Pressão Humidade
    00:00 +20°C° 0 mm 3 m/s 724 mmHg 66%
    01:00 +20°C° 0 mm 3 m/s 724 mmHg 67%
    02:00 +19°C° 0 mm 3 m/s 724 mmHg 68%
    03:00 +19°C° 0 mm 3 m/s 723 mmHg 70%
    04:00 +19°C° 0 mm 2 m/s 723 mmHg 69%
    05:00 +19°C° 0 mm 2 m/s 723 mmHg 69%
    06:00 +20°C° 0 mm 2 m/s 723 mmHg 69%
    07:00 +21°C° 0 mm 2 m/s 723 mmHg 67%
    08:00 +23°C° 0 mm 2 m/s 723 mmHg 65%
    09:00 +24°C° 0 mm 2 m/s 723 mmHg 63%
    10:00 +25°C° 0 mm 2 m/s 723 mmHg 59%
    11:00 +26°C° 0 mm 2 m/s 723 mmHg 56%
    12:00 +27°C° 0 mm 2 m/s 722 mmHg 52%
    13:00 +28°C° 0 mm 2 m/s 722 mmHg 51%
    14:00 +29°C° 0 mm 2 m/s 721 mmHg 49%
    15:00 +29°C° 0 mm 2 m/s 721 mmHg 47%
    16:00 +29°C° 0.1 mm 1 m/s 721 mmHg 48%
    17:00 +29°C° 0.1 mm 1 m/s 721 mmHg 49%
    18:00 +29°C° 0.1 mm 1 m/s 721 mmHg 49%
    19:00 +27°C° 0 mm 1 m/s 721 mmHg 52%
    20:00 +26°C° 0 mm 1 m/s 721 mmHg 55%
    21:00 +24°C° 0 mm 1 m/s 721 mmHg 58%
    22:00 +24°C° 0 mm 1 m/s 721 mmHg 57%
    23:00 +23°C° 0 mm 2 m/s 721 mmHg 56%

    2 Junho, Terça-feira

    Tempo Temperatura Precipitação Vento Pressão Humidade
    00:00 +23°C° 0 mm 2 m/s 721 mmHg 55%
    01:00 +21°C° 0 mm 2 m/s 721 mmHg 56%
    02:00 +22°C° 0 mm 1 m/s 721 mmHg 57%
    03:00 +21°C° 0 mm 1 m/s 720 mmHg 59%
    04:00 +22°C° 0 mm 1 m/s 721 mmHg 58%
    05:00 +22°C° 0 mm 1 m/s 721 mmHg 58%
    06:00 +23°C° 0 mm 1 m/s 721 mmHg 57%
    07:00 +25°C° 0 mm 1 m/s 721 mmHg 55%
    08:00 +26°C° 0 mm 2 m/s 720 mmHg 52%
    09:00 +27°C° 0 mm 2 m/s 720 mmHg 50%
    10:00 +29°C° 0 mm 2 m/s 720 mmHg 47%
    11:00 +30°C° 0 mm 2 m/s 720 mmHg 45%
    12:00 +31°C° 0 mm 2 m/s 720 mmHg 42%
    13:00 +32°C° 0.1 mm 2 m/s 720 mmHg 41%
    14:00 +32°C° 0.1 mm 2 m/s 719 mmHg 39%
    15:00 +34°C° 0.1 mm 2 m/s 719 mmHg 38%
    16:00 +32°C° 0.2 mm 2 m/s 719 mmHg 41%
    17:00 +30°C° 0.2 mm 2 m/s 719 mmHg 44%
    18:00 +29°C° 0.2 mm 2 m/s 719 mmHg 48%
    19:00 +28°C° 0.1 mm 2 m/s 719 mmHg 49%
    20:00 +27°C° 0.1 mm 2 m/s 720 mmHg 50%
    21:00 +26°C° 0.1 mm 3 m/s 720 mmHg 52%
    22:00 +25°C° 0 mm 2 m/s 720 mmHg 52%
    23:00 +25°C° 0 mm 2 m/s 719 mmHg 53%

    3 Junho, Quarta-feira

    Tempo Temperatura Precipitação Vento Pressão Humidade
    00:00 +24°C° 0 mm 2 m/s 719 mmHg 53%
    01:00 +24°C° 0 mm 2 m/s 719 mmHg 54%
    02:00 +23°C° 0 mm 2 m/s 719 mmHg 55%
    03:00 +21°C° 0 mm 2 m/s 719 mmHg 57%
    04:00 +23°C° 0 mm 2 m/s 719 mmHg 56%
    05:00 +22°C° 0 mm 3 m/s 720 mmHg 56%
    06:00 +24°C° 0 mm 3 m/s 720 mmHg 56%
    07:00 +25°C° 0 mm 3 m/s 720 mmHg 52%
    08:00 +27°C° 0 mm 4 m/s 720 mmHg 48%
    09:00 +28°C° 0 mm 4 m/s 720 mmHg 44%
    10:00 +30°C° 0 mm 4 m/s 720 mmHg 41%
    11:00 +32°C° 0 mm 4 m/s 720 mmHg 37%
    12:00 +33°C° 0 mm 4 m/s 720 mmHg 33%
    13:00 +34°C° 0 mm 4 m/s 720 mmHg 31%
    14:00 +34°C° 0 mm 4 m/s 720 mmHg 30%
    15:00 +35°C° 0 mm 4 m/s 720 mmHg 28%
    16:00 +33°C° 0.1 mm 4 m/s 720 mmHg 34%
    17:00 +30°C° 0.1 mm 5 m/s 720 mmHg 41%
    18:00 +28°C° 0.1 mm 5 m/s 720 mmHg 47%
    19:00 +27°C° 0 mm 5 m/s 720 mmHg 48%
    20:00 +26°C° 0 mm 4 m/s 721 mmHg 50%
    21:00 +25°C° 0 mm 4 m/s 721 mmHg 51%
    22:00 +25°C° 0 mm 3 m/s 721 mmHg 51%
    23:00 +24°C° 0 mm 3 m/s 721 mmHg 51%

    4 Junho, Quinta-feira

    Tempo Temperatura Precipitação Vento Pressão Humidade
    00:00 +24°C° 0 mm 2 m/s 721 mmHg 51%
    01:00 +23°C° 0 mm 2 m/s 720 mmHg 53%
    02:00 +23°C° 0 mm 2 m/s 720 mmHg 55%
    03:00 +21°C° 0 mm 2 m/s 720 mmHg 57%
    04:00 +22°C° 0 mm 3 m/s 720 mmHg 58%
    05:00 +22°C° 0 mm 3 m/s 720 mmHg 59%
    06:00 +22°C° 0 mm 3 m/s 720 mmHg 59%
    07:00 +25°C° 0 mm 4 m/s 720 mmHg 56%
    08:00 +26°C° 0 mm 4 m/s 720 mmHg 52%
    09:00 +27°C° 0 mm 5 m/s 720 mmHg 48%
    10:00 +29°C° 0 mm 5 m/s 720 mmHg 46%
    11:00 +30°C° 0 mm 5 m/s 720 mmHg 43%
    12:00 +32°C° 0 mm 5 m/s 720 mmHg 40%
    13:00 +33°C° 0 mm 5 m/s 720 mmHg 39%
    14:00 +33°C° 0 mm 6 m/s 720 mmHg 38%
    15:00 +33°C° 0 mm 6 m/s 720 mmHg 37%
    16:00 +33°C° 0 mm 6 m/s 721 mmHg 40%
    17:00 +32°C° 0 mm 5 m/s 721 mmHg 44%
    18:00 +30°C° 0 mm 5 m/s 722 mmHg 47%
    19:00 +28°C° 0 mm 5 m/s 722 mmHg 48%
    20:00 +27°C° 0 mm 5 m/s 723 mmHg 49%
    21:00 +25°C° 0 mm 4 m/s 724 mmHg 50%
    22:00 +23°C° 0 mm 4 m/s 724 mmHg 54%
    23:00 +22°C° 0 mm 3 m/s 724 mmHg 58%
    Mostrar mais